Weather in Caceres

Spain     39°28′06″N   6°22′49″W
temp.,
°C
wind,
m/s
gust,
m/s
humid.,
%
clouds,
%
prec.,
mm/h
press.,
hPa
HPBL,
m
5 march, fri
fri501:00+10ese2285100 0.1 101652
04:00+9se1295100 1.7 101529
07:00+9ene3493100 2.3 101598
10:00+10e3686100 0.1 1015346
13:00+14e3671100 0.1 10151044
16:00+15e3565100 1.2 10141167
19:00+10sw2394100 2.5 101474
22:00+8wnw019191 0.0 101722
6 march, sat
sat601:00+7nnw129358 0.0 101822
04:00+7nne239224 0.0 101835
07:00+6ne389014 0.0 1019197
10:00+10ne512810 0.0 1020478
13:00+16ene45580 0.0 10191011
16:00+17ne345126 0.0 10161465
19:00+13nne367315 0.0 1016123
22:00+9ne237324 0.0 101927
7 march, sun
sun701:00+8ne237819 0.0 101923
04:00+7ne34901 0.0 101988
07:00+6ne399415 0.0 1019221
10:00+10ene587939 0.0 1019375
13:00+15ne446220 0.0 1018875
16:00+16nnw33560 0.1 10151390
19:00+13wnw23740 0.1 101542
22:00+9w22800 0.0 101622
8 march, mon
mon801:00+7w12920 0.0 101722
04:00+6w11920 0.0 101622
07:00+5wsw11950 0.0 101622
10:00+9w11845 0.0 1017256
13:00+15wsw11579 0.0 1016832
16:00+16nw22500 0.0 10141401
19:00+12wnw23740 0.1 101552
22:00+10n4116726 0.1 1018322
9 march, tue
tue901:00+6nne357613 0.1 1019115
04:00+5nne358012 0.0 1019111
07:00+5nne377926 0.0 1021168
10:00+8ne59689 0.0 1021425
13:00+13ne44565 0.0 1021894
16:00+15n34480 0.0 10191457
19:00+11nnw23640 0.0 102031
22:00+7nne226216 0.0 102332